GFSSGP_925_thetae_021.txt.gz
Theta_e
322 323 324 322 318 317 319 319 316 318 318 316 314 315 316 317 319 319 322 328 329 331 331 334 334 337 337 336 335 336 337 337 337 336 334 334 333 332 333 332 332 333 332 333 332 331 330 332 333
322 322 323 316 321 319 318 317 316 315 316 314 315 316 317 319 318 318 323 328 328 330 332 330 335 336 336 336 336 335 335 334 333 333 332 331 331 330 329 330 329 330 331 330 329 327 326 326 325
321 320 320 318 317 320 319 315 314 316 313 315 316 314 315 318 314 317 323 327 326 328 329 327 333 335 334 334 334 334 333 333 332 330 330 329 328 326 323 322 321 325 326 324 321 319 316 316 318
320 315 310 320 322 319 317 315 313 315 314 313 314 315 313 315 315 317 321 325 325 325 326 327 329 334 333 332 332 332 331 331 330 328 327 325 322 320 317 315 314 319 318 315 311 308 305 304 305
316 311 315 318 316 313 311 312 311 314 314 314 313 314 314 312 315 317 320 325 324 323 322 324 327 332 333 327 331 331 330 329 327 325 322 320 317 315 314 313 314 313 313 312 309 310 309 305 304
313 310 317 317 316 315 313 312 312 313 313 313 314 313 312 310 314 317 320 323 323 323 320 322 327 329 328 328 328 329 329 326 323 320 317 316 315 314 312 312 312 312 312 311 311 309 304 303 299
315 315 317 314 317 317 315 309 313 313 313 312 311 315 312 308 313 315 319 321 322 322 319 319 323 324 324 325 325 326 325 322 318 316 315 314 311 312 310 310 311 311 310 310 304 302 299 298 298
311 312 316 314 315 317 315 311 312 311 313 309 309 313 312 310 313 315 318 319 320 319 318 317 319 320 320 320 319 321 321 317 315 313 312 309 304 306 305 307 310 310 309 305 299 297 296 296 296
309 310 312 313 315 317 314 314 312 311 312 311 310 311 309 310 312 315 315 316 317 317 316 315 316 316 316 315 315 316 315 312 310 309 304 298 297 297 300 304 306 305 303 301 297 296 295 296 296
313 308 309 310 314 315 314 313 313 313 312 311 311 309 308 308 309 310 309 311 314 315 315 314 314 313 313 313 312 311 310 308 307 303 300 299 296 297 300 300 298 297 296 296 296 295 295 295 295
313 313 312 314 313 314 314 312 311 311 311 309 310 309 305 304 303 305 307 310 312 313 313 313 312 311 310 309 310 309 307 305 304 301 299 297 297 297 297 297 296 296 296 296 296 296 296 295 295
316 313 312 314 315 314 313 312 312 309 314 311 308 309 304 303 301 303 303 306 309 311 312 312 310 309 308 306 306 306 305 301 300 299 299 297 297 297 297 297 297 296 295 295 296 296 295 294 294
315 315 314 312 313 312 311 311 311 310 310 307 307 306 305 304 304 304 304 304 304 306 308 310 310 308 306 303 302 303 302 298 298 298 299 298 297 297 297 296 296 295 295 295 295 295 295 295 295
313 313 312 311 312 312 314 313 311 312 310 308 307 306 304 304 305 305 304 304 303 304 305 307 308 307 305 302 301 300 300 298 298 299 299 298 297 297 296 296 295 295 295 295 295 295 295 294 294
312 312 310 309 311 311 310 312 310 312 310 309 307 307 305 304 305 304 306 305 306 306 304 305 305 305 304 302 302 300 298 297 298 299 298 298 297 296 295 295 295 295 295 295 295 295 294 294 294
311 310 311 310 309 310 310 311 311 309 309 309 308 305 304 305 304 307 307 306 306 305 305 304 304 304 303 302 302 301 297 298 299 298 298 297 297 296 295 295 295 295 294 294 294 293 293 293 293
307 309 308 309 308 311 310 311 311 310 308 308 307 306 306 304 303 306 308 308 307 307 305 304 303 303 303 302 301 301 299 298 299 298 298 296 296 295 294 294 294 294 294 293 293 292 292 292 293
308 308 308 309 310 310 311 310 310 311 308 307 307 307 307 307 308 308 309 308 308 307 306 305 303 302 301 301 300 300 299 298 299 298 298 297 295 295 294 293 293 293 293 292 292 292 291 291 292
308 307 308 308 309 311 310 311 311 311 311 307 307 309 309 309 310 309 309 310 306 306 305 304 302 301 299 299 298 298 298 298 298 298 298 297 295 294 293 293 292 292 292 292 291 291 291 290 290
309 310 309 310 309 307 308 309 309 308 310 311 311 309 309 309 308 307 306 306 307 307 306 303 302 300 299 299 298 298 297 297 298 298 298 297 296 294 293 292 292 292 291 291 291 291 290 290 289
308 309 310 310 308 306 307 310 309 307 308 309 309 309 309 309 309 308 303 303 305 305 304 303 302 301 299 299 298 298 297 296 296 296 297 297 296 294 292 292 292 292 291 291 291 291 290 289 288
310 308 309 310 310 312 309 312 309 309 309 307 309 309 308 308 308 307 305 300 303 305 305 303 301 300 299 299 298 297 297 296 295 295 296 296 295 294 293 292 291 291 291 290 291 290 289 289 288
310 309 308 308 307 309 309 309 311 308 307 308 308 309 308 308 306 307 305 302 306 305 304 303 300 299 298 298 298 297 297 296 297 295 295 295 295 294 293 292 291 290 290 290 289 289 289 288 288
308 310 309 306 307 311 310 310 311 308 308 309 308 307 307 308 306 303 302 303 303 303 302 300 299 297 298 297 297 297 296 296 296 295 294 294 294 294 293 292 291 290 289 289 289 288 288 288 287
309 309 310 310 310 313 307 309 312 310 307 308 309 307 305 303 302 301 300 299 299 298 298 297 296 295 296 297 297 296 296 296 296 295 294 292 292 292 292 291 290 290 289 289 288 288 287 287 286
308 308 311 309 311 313 307 311 314 308 307 306 304 304 303 302 302 300 300 299 298 297 296 296 295 295 296 296 295 296 296 296 294 295 294 294 293 292 292 292 291 290 289 288 287 287 287 286 286
306 308 308 310 298 305 311 310 312 307 307 308 307 305 303 301 300 299 298 297 298 297 295 295 295 295 296 295 295 295 295 295 294 294 294 294 294 293 292 292 291 290 289 288 287 286 286 285 285
306 306 310 308 313 309 311 310 312 311 312 311 307 305 302 301 300 300 300 298 298 298 298 297 296 297 296 295 295 294 294 294 294 294 294 293 293 292 292 292 291 290 289 287 286 286 285 284 284
306 307 307 308 312 316 317 315 314 312 307 306 303 302 302 303 303 301 300 300 299 299 299 298 297 296 296 296 295 294 294 294 294 293 293 293 293 292 292 292 291 290 289 287 286 285 285 283 283
307 308 308 312 313 311 314 315 313 313 311 310 311 309 304 302 302 301 300 301 301 299 300 299 298 297 297 296 295 295 294 293 293 293 293 292 292 291 292 291 290 290 289 287 286 285 284 283 282

GFSSGP_925_thetae_024.txt.gz
Theta_e
321 322 323 321 316 316 319 317 317 316 317 315 310 314 316 316 318 316 321 327 329 329 331 334 335 335 336 338 335 334 336 336 335 336 334 334 333 332 332 333 333 334 333 333 332 331 331 331 330
321 322 321 314 319 316 313 317 318 314 315 313 314 315 317 317 317 318 324 327 328 329 331 334 334 335 335 335 334 334 336 335 334 334 333 332 331 331 331 331 331 332 332 331 329 326 324 324 324
320 320 318 316 314 313 315 315 315 314 313 314 315 313 315 316 314 317 323 327 329 331 331 332 332 335 335 335 335 335 335 334 333 332 331 331 331 329 327 325 326 329 329 326 322 318 315 315 316
319 314 309 319 320 318 316 316 312 315 314 311 313 314 311 314 316 317 322 327 328 331 331 329 329 335 335 335 335 335 334 332 331 330 331 330 327 324 320 318 322 322 320 318 314 309 305 305 305
315 309 312 316 315 314 312 312 311 314 314 313 313 313 313 312 314 316 321 326 326 329 329 326 326 333 333 334 334 333 332 331 330 329 329 327 323 320 318 317 318 316 314 313 312 312 312 308 303
312 309 316 315 313 313 312 311 312 313 312 312 313 313 311 311 312 316 320 325 325 325 326 326 326 332 332 333 332 330 330 330 329 328 326 322 320 318 316 316 315 315 313 314 313 310 307 302 300
314 313 316 313 314 314 315 309 313 313 313 312 311 314 311 309 312 316 320 325 324 323 323 323 325 329 331 332 328 330 328 328 327 325 321 319 317 316 315 314 314 314 314 311 306 302 300 299 298
310 312 315 313 314 315 314 311 311 312 313 308 309 313 313 310 311 315 320 323 323 323 322 321 324 326 326 328 328 328 328 326 323 319 317 314 314 313 312 312 313 313 310 301 298 298 297 297 297
308 311 311 313 313 315 312 313 311 310 311 310 309 310 309 309 312 315 318 320 321 321 321 320 321 323 322 323 325 325 326 322 318 316 314 311 308 307 305 308 310 310 305 299 298 297 297 297 296
312 308 309 308 310 313 313 312 313 313 311 310 310 308 308 307 311 313 314 315 318 319 320 319 318 319 320 319 320 321 323 318 315 313 311 306 301 301 303 306 305 303 300 298 297 297 296 296 296
312 313 310 311 310 312 313 312 310 311 311 308 310 310 305 304 307 310 312 314 316 317 318 318 317 317 317 316 316 316 317 315 312 309 307 301 299 299 301 303 301 299 297 297 296 296 296 296 295
315 312 312 313 313 314 313 310 311 309 314 310 307 308 305 303 302 306 309 312 313 314 316 316 316 315 315 314 313 312 312 311 309 306 304 301 297 298 300 300 297 295 295 295 295 296 296 295 295
314 313 313 311 311 311 311 311 311 310 310 307 306 305 305 304 303 305 307 309 310 311 313 315 315 314 313 313 312 311 310 308 306 305 302 299 297 297 297 297 296 296 295 295 295 296 296 295 295
311 312 311 310 311 311 313 313 311 310 307 307 306 305 303 303 304 305 304 305 306 308 310 312 313 313 312 311 310 308 308 307 305 302 300 299 297 297 297 296 296 296 295 295 295 295 295 295 294
312 312 308 307 309 310 309 311 309 311 309 307 306 304 305 303 304 304 307 306 307 307 307 308 310 312 312 310 309 307 305 305 304 300 299 299 298 297 297 296 296 295 294 294 294 294 294 294 294
310 309 310 308 308 309 310 310 311 307 306 307 306 305 304 304 303 306 309 308 307 307 307 306 306 308 310 310 308 306 303 303 302 299 298 298 298 297 297 296 295 295 294 293 294 294 294 294 294
306 308 307 307 307 309 308 309 309 308 307 306 305 305 306 306 304 306 309 309 308 309 307 306 305 305 306 307 307 305 302 301 301 299 298 298 298 298 296 296 295 294 294 293 293 293 293 293 293
308 306 306 306 308 307 309 309 308 309 307 308 309 308 306 308 309 311 310 310 309 308 307 306 305 303 304 304 303 302 302 301 300 298 298 299 298 297 297 295 294 294 293 292 293 293 293 293 293
307 305 305 306 307 309 308 308 308 309 309 309 309 309 307 308 309 309 309 309 308 306 306 305 304 303 301 300 299 298 300 300 300 298 298 299 298 297 297 295 294 293 293 293 292 292 292 292 292
307 308 307 308 307 305 306 308 308 307 308 309 309 309 309 309 307 307 306 307 307 308 306 304 303 301 301 300 299 299 298 298 300 299 298 298 298 297 296 295 294 293 293 292 292 292 291 291 290
306 307 308 308 307 305 305 309 307 307 306 308 308 308 307 307 307 307 304 303 305 305 305 304 303 302 301 300 298 298 298 298 297 296 297 298 298 297 296 295 293 293 292 292 292 291 291 291 289
309 306 307 308 308 309 307 310 309 311 310 306 307 306 304 304 304 303 303 302 304 306 306 304 303 302 300 299 297 297 298 297 297 296 297 298 298 297 296 294 293 292 292 291 291 291 291 291 290
308 308 307 307 307 307 308 308 311 308 308 307 306 305 304 303 303 303 302 303 305 306 305 305 303 301 299 299 298 297 298 298 298 296 295 295 297 297 296 294 293 292 291 291 291 290 290 290 291
307 309 307 304 306 310 308 309 309 307 309 309 308 306 305 303 302 301 301 301 302 303 302 301 301 300 299 298 298 297 297 297 297 295 295 294 295 296 295 294 293 292 291 291 290 290 290 290 290
307 307 309 309 310 312 307 308 311 309 307 308 308 306 304 302 300 299 301 300 300 301 300 298 298 298 297 297 297 296 297 297 296 296 294 293 293 294 295 294 293 292 291 291 290 290 289 289 289
306 307 311 312 310 314 307 309 311 307 307 305 305 304 303 301 299 301 300 298 299 299 299 297 296 296 297 297 296 296 296 296 296 296 295 294 295 295 294 295 293 292 291 290 290 289 289 288 288
306 308 307 311 300 306 312 311 309 306 306 306 307 306 302 301 300 301 300 300 300 299 298 296 296 296 296 296 297 296 296 296 296 296 295 295 295 295 294 294 293 293 292 290 289 288 288 288 287
306 305 310 309 315 314 313 311 313 311 311 308 304 302 301 300 300 300 299 300 302 300 300 298 297 297 297 296 296 295 296 296 295 295 295 295 295 295 294 293 293 292 291 290 289 288 287 287 287
306 307 307 307 312 318 319 316 313 310 308 307 305 305 304 304 303 300 299 297 297 297 298 297 296 295 295 295 295 294 294 294 294 294 295 295 295 294 294 293 292 291 290 290 289 288 287 287 286
307 311 310 315 314 310 313 315 312 311 310 307 306 302 300 298 297 296 296 295 294 294 294 295 294 295 296 296 295 294 293 294 294 294 294 294 293 293 293 293 291 290 290 289 288 287 287 286 285

GFSSGP_925_thetae_030.txt.gz
Theta_e
318 320 322 325 324 323 322 323 321 323 322 318 318 321 322 321 321 322 320 328 329 330 335 337 341 339 339 338 339 336 338 337 337 337 336 338 335 334 334 334 337 337 337 334 332 330 330 330 328
319 320 323 325 322 319 318 321 325 323 320 318 318 319 320 321 320 322 326 326 329 330 335 339 339 340 339 337 335 332 332 336 338 336 335 334 333 331 331 333 335 334 333 332 329 326 325 325 323
319 320 323 322 321 318 319 321 321 319 318 319 320 319 321 322 320 322 323 327 329 331 333 337 336 338 339 338 336 333 331 335 334 334 333 332 332 332 332 332 332 332 331 330 325 320 319 318 317
320 321 321 320 320 321 319 319 320 321 318 317 319 320 318 318 320 320 321 328 330 331 332 333 331 334 336 339 337 334 332 336 335 335 333 331 331 331 331 329 330 330 329 325 320 316 311 308 307
318 320 319 320 319 319 319 319 318 319 319 319 318 320 319 316 315 316 324 328 331 331 333 335 332 333 333 334 335 334 334 335 335 332 332 331 330 329 327 327 328 326 323 319 314 315 308 304 301
320 321 319 319 319 319 319 318 318 319 318 317 318 319 320 314 314 317 323 328 331 332 333 334 333 333 334 334 333 333 335 336 333 331 330 330 329 327 324 324 323 320 317 316 317 313 309 304 300
319 319 319 319 320 321 320 316 318 319 319 319 317 319 320 316 314 316 322 327 331 332 332 333 333 334 335 335 336 336 336 334 331 330 329 329 328 324 322 321 319 317 316 317 315 311 306 302 299
320 320 321 321 320 319 319 316 317 318 319 314 316 319 319 317 313 317 321 326 329 331 332 332 333 333 334 336 335 335 334 333 330 329 328 327 326 322 319 317 317 317 317 315 313 308 302 299 298
315 320 320 319 318 318 317 318 315 314 317 315 316 318 317 312 313 318 322 324 326 328 330 331 331 330 332 331 332 332 333 332 329 328 327 326 323 320 317 315 316 318 315 312 306 301 299 298 298
320 320 319 318 317 317 317 317 318 316 317 318 316 316 313 311 314 318 321 323 324 325 326 328 329 328 330 329 329 329 330 330 326 327 326 324 320 317 316 315 315 316 312 308 305 299 297 297 297
319 319 319 316 315 314 316 316 316 317 318 318 318 318 317 313 314 316 318 320 322 324 324 324 325 327 328 327 326 328 328 327 326 326 324 320 317 314 313 314 314 314 310 308 304 297 296 297 297
319 318 318 317 315 315 316 316 316 316 317 317 318 317 317 315 315 315 316 317 319 321 322 323 323 324 326 326 325 325 324 325 324 324 321 318 315 313 312 313 313 312 308 305 300 296 296 296 296
318 318 317 317 316 315 316 317 317 317 317 317 316 314 314 316 315 314 313 315 317 318 319 320 321 322 323 324 324 324 324 323 322 322 319 316 314 311 310 310 310 309 305 301 298 296 296 296 295
315 315 316 315 315 315 315 316 315 315 316 315 315 315 315 314 314 313 312 312 313 315 316 318 319 320 321 322 322 322 322 322 321 319 317 316 312 309 308 308 307 305 302 299 296 296 295 295 294
313 314 315 314 313 314 313 315 315 315 315 314 314 315 314 313 312 312 312 312 312 312 313 315 316 317 319 319 320 320 319 320 319 317 316 314 311 307 304 305 304 302 299 296 295 295 295 294 294
313 312 314 314 311 312 314 314 315 315 312 313 314 314 314 314 314 313 312 312 312 311 311 312 312 313 316 317 318 318 318 316 316 315 313 313 311 307 302 302 301 300 297 295 295 295 294 295 295
314 314 315 314 312 312 314 314 314 313 312 312 313 313 314 314 314 313 313 311 311 311 310 310 310 311 313 315 316 316 316 315 314 313 312 310 309 306 302 301 300 298 295 295 295 295 295 295 294
316 314 313 313 313 311 312 313 312 312 312 312 312 313 313 313 313 312 311 311 310 309 309 309 308 309 311 312 313 314 313 313 313 312 310 308 307 305 301 299 298 297 295 295 295 295 294 295 295
312 312 313 313 313 311 312 313 313 312 312 313 313 313 314 313 312 310 310 309 309 308 308 308 307 306 308 309 311 312 311 311 310 310 309 307 306 305 302 299 298 296 295 295 294 294 293 293 293
312 313 314 314 313 310 312 312 312 312 313 313 313 313 314 313 312 311 310 309 308 307 307 306 306 305 305 307 308 309 308 308 308 308 307 306 304 303 302 299 297 296 295 295 294 293 293 294 293
313 312 313 314 312 311 311 314 313 314 312 312 312 312 311 310 311 311 309 307 306 305 305 304 304 304 303 304 305 306 304 305 305 305 304 303 302 302 302 299 297 296 295 295 294 293 293 294 292
314 313 311 311 311 313 311 315 316 316 316 314 313 310 310 311 309 308 307 305 303 302 302 302 302 302 302 302 303 304 303 304 303 302 302 302 300 300 300 298 297 296 295 294 294 293 293 295 294
312 309 309 310 311 311 313 313 319 313 313 313 311 310 309 307 306 305 303 301 300 299 299 299 300 301 300 300 301 302 302 303 303 302 301 300 299 298 298 297 296 296 295 294 294 293 293 293 295
308 310 311 309 311 317 318 315 316 315 313 312 310 307 306 305 303 301 299 298 297 297 297 297 298 297 298 299 300 300 300 301 301 300 300 299 298 297 297 297 296 295 295 294 294 293 292 292 293
309 311 317 322 321 323 311 315 315 314 312 309 307 305 304 302 301 299 298 297 296 295 295 295 296 295 296 296 297 298 299 299 300 299 299 299 298 297 296 296 295 295 295 295 294 293 292 292 292
311 313 323 328 326 326 320 321 319 313 307 306 306 305 303 301 300 298 297 296 296 295 294 294 294 294 294 294 295 295 296 297 298 298 298 298 298 298 296 295 294 294 294 294 293 292 292 292 291
310 312 313 315 318 319 319 318 313 309 308 306 305 304 302 299 298 297 296 294 294 294 294 293 293 292 292 293 293 293 294 294 295 296 296 297 297 297 296 295 294 294 293 293 292 292 292 291 291
310 311 315 313 321 322 318 317 316 311 309 307 305 302 299 298 297 296 295 293 293 293 293 292 292 291 291 291 291 292 292 293 293 293 294 294 295 295 295 295 294 293 293 292 292 291 291 290 290
309 309 309 313 318 322 322 318 313 311 306 305 301 299 297 296 295 295 294 293 292 291 291 291 290 290 290 290 290 290 291 291 292 292 292 292 292 293 293 293 293 293 292 291 291 291 291 290 290
310 313 313 316 317 316 317 317 313 306 302 300 297 295 295 294 294 293 292 291 291 290 290 290 290 289 288 288 289 289 289 290 290 291 291 291 291 291 292 292 292 292 292 291 290 290 290 290 289

GFSSGP_925_thetae_033.txt.gz
Theta_e
319 322 322 325 327 324 323 323 323 326 324 322 320 322 322 322 321 325 325 329 331 334 338 338 341 338 341 339 340 339 337 338 338 339 337 338 338 337 334 336 337 338 337 336 332 331 330 328 326
320 321 323 323 324 322 321 322 325 323 322 321 321 321 322 322 322 323 327 329 330 332 337 341 341 338 338 339 339 337 338 338 338 338 336 336 335 334 335 335 336 336 335 333 330 326 324 323 322
321 320 324 323 322 322 321 323 322 322 322 321 322 322 322 322 322 324 327 330 330 331 336 339 341 341 338 338 337 334 335 337 337 337 336 334 332 333 332 332 334 334 332 331 326 319 317 316 316
321 322 321 321 322 321 320 321 321 322 322 320 321 322 322 321 322 323 326 330 330 331 335 339 339 341 340 338 337 334 331 333 336 336 335 333 331 331 331 331 332 331 330 328 322 317 314 311 308
320 321 321 322 321 320 320 320 321 322 322 321 320 321 321 320 320 320 327 330 331 332 333 336 337 338 339 339 338 335 333 333 335 336 334 332 331 330 330 328 329 330 328 323 317 312 308 306 303
321 320 322 322 320 320 320 321 321 322 322 321 320 321 321 319 318 320 325 329 331 331 333 333 331 334 336 336 339 337 334 334 336 335 332 331 330 330 329 327 328 326 322 318 318 312 306 302 300
321 322 322 322 321 320 320 320 321 321 321 320 320 320 320 320 318 319 323 327 331 332 334 334 335 333 333 333 334 335 334 335 336 334 332 330 329 328 327 324 325 322 319 319 318 313 307 300 299
321 321 321 321 320 320 320 320 320 320 319 318 319 319 320 321 317 320 323 326 330 332 333 334 335 336 337 337 334 333 333 335 336 332 330 328 328 327 324 322 321 319 318 319 316 312 305 300 299
320 321 321 321 320 319 319 318 319 318 318 319 319 319 319 317 318 321 323 325 328 331 333 333 334 334 335 335 336 336 335 336 333 332 329 328 327 325 322 319 317 318 319 316 314 310 303 299 298
321 322 320 320 319 318 318 318 318 318 318 318 319 319 318 316 317 320 322 324 327 329 331 332 333 333 333 333 334 336 335 334 332 331 329 326 327 324 320 318 316 317 317 314 313 307 299 298 300
321 320 319 319 319 318 317 317 317 317 318 317 318 318 319 318 318 318 319 320 322 325 328 330 332 332 331 332 331 331 332 331 332 330 329 326 326 322 318 317 315 317 316 312 310 302 297 299 300
320 319 319 319 319 317 318 317 317 317 317 317 318 318 318 318 318 317 317 318 319 321 325 327 329 330 330 330 330 329 329 330 331 330 327 325 324 320 317 316 315 316 313 311 308 302 299 298 298
319 318 317 318 318 318 318 317 317 317 317 317 317 317 317 317 317 316 317 317 318 319 321 324 326 327 328 329 329 327 328 329 328 328 325 325 322 318 315 314 315 315 312 310 306 300 298 298 297
317 317 317 316 316 316 316 317 316 316 316 316 316 316 316 316 316 316 316 316 316 317 319 321 324 324 325 327 328 327 327 326 326 325 325 324 320 317 314 313 314 313 310 307 302 300 298 298 297
316 315 315 316 316 316 315 316 316 316 316 316 315 316 316 316 315 315 315 315 316 315 316 318 320 322 323 325 326 326 326 326 325 324 324 322 319 316 313 311 311 310 308 304 300 299 299 298 297
315 316 316 317 315 315 314 315 316 316 315 315 314 315 316 316 316 315 315 315 314 315 315 316 317 319 321 322 324 325 325 324 324 323 322 321 317 315 311 310 309 308 305 301 299 298 298 298 297
316 317 318 318 317 314 315 315 315 315 315 315 316 316 315 315 315 315 314 314 314 313 313 314 314 316 318 320 321 322 322 322 321 321 320 318 316 314 310 307 307 306 302 299 298 298 298 298 297
319 319 318 318 317 316 316 316 316 316 316 316 316 315 315 315 315 313 312 312 312 312 312 312 312 312 314 316 318 319 320 319 320 319 318 317 314 312 309 306 305 303 300 298 298 298 297 298 297
316 316 317 316 316 316 317 316 315 315 315 315 316 316 315 315 313 311 310 310 310 310 310 310 310 310 310 313 314 316 317 317 317 317 316 315 313 310 308 305 303 302 299 298 297 297 297 298 297
315 315 316 316 317 316 316 315 314 314 316 316 316 315 315 313 312 310 308 307 306 306 306 307 307 308 308 310 311 313 314 315 315 314 314 313 312 309 307 304 302 301 299 298 297 297 297 297 296
316 316 316 316 315 314 314 315 316 317 319 315 313 313 312 311 309 308 305 304 303 303 303 304 305 305 306 306 308 309 310 308 309 310 311 311 310 308 306 304 302 301 299 298 298 297 297 297 296
315 315 314 313 313 315 313 316 317 319 319 313 312 310 309 308 306 305 303 301 301 301 301 302 302 303 302 303 305 306 307 306 306 306 307 308 307 306 305 304 302 301 299 298 298 297 296 297 296
314 312 312 312 313 314 315 316 319 320 316 313 311 309 307 305 304 303 301 300 299 299 299 300 299 300 301 302 302 303 304 304 304 305 304 303 304 303 303 303 302 301 299 298 298 297 296 297 297
311 311 313 314 314 320 320 320 320 316 314 311 309 307 306 304 303 302 300 299 298 297 297 297 297 297 298 299 299 301 302 302 302 302 302 302 302 302 301 301 301 300 299 298 297 297 296 296 297
310 313 323 325 323 324 316 322 319 316 311 310 308 307 305 303 302 300 300 299 298 297 296 296 296 295 295 296 297 297 298 299 300 300 301 301 301 300 299 299 299 299 299 298 297 297 296 296 296
314 316 323 328 326 326 321 322 321 313 309 309 308 306 304 302 301 299 298 297 297 296 295 295 295 294 293 294 294 295 296 296 297 298 298 299 299 299 299 299 298 298 298 297 297 296 296 295 295
316 316 316 324 322 323 318 317 317 311 310 309 307 305 302 301 299 299 297 296 295 294 294 293 293 292 292 292 292 293 293 294 294 295 295 296 296 297 297 297 298 297 297 296 296 296 296 295 295
309 309 316 316 322 321 317 317 317 313 311 309 306 303 301 299 298 297 296 295 294 293 293 292 292 291 290 290 291 291 291 292 292 293 293 293 293 294 294 295 296 296 296 296 295 295 295 295 294
312 311 310 312 317 321 321 317 314 312 311 308 303 300 299 298 297 296 295 294 293 292 291 291 290 289 289 289 289 289 289 290 290 289 289 290 291 292 292 293 293 294 295 295 295 295 294 294 294
313 314 314 316 316 316 317 317 315 308 306 302 301 299 297 295 294 293 293 292 291 290 289 289 289 288 287 287 288 288 287 288 288 288 287 286 286 287 289 291 291 292 293 294 294 294 293 293 293